Tracking 17855 objects as of 27-September-2016
HD Live streaming from Space Station
objects crossing your sky now

SL-8 R/B

Track SL-8 R/B now!
10-day predictions


NORAD ID: 24306
Int'l Code: 1996-052C
Perigee: 969.1 km
Apogee: 1,009.1 km
Inclination: 82.9 °
Period: 104.7 minutes
Semi major axis: 7360 km
RCS: 5.014 m2 (large)
Launch date: September 5, 1996
Source: Commonwealth of Independent States (former USSR) (CIS)
Launch site: PLESETSK MISSILE AND SPACE COMPLEX (PKMTR)

Note: This is a ROCKET BODY
Your satellite tracking list
Your tracking list is empty





NASA's NSSDC Master Catalog

Two Line Element Set (TLE):
1 24306U 96052C   16270.11361430  .00000031  00000-0  16053-4 0  9995
2 24306  82.9382 176.3194 0027162  38.3561 321.9519 13.74910856  6408
Source of the keplerian elements: AFSPC

N2YO: 1163